Flag for Moldova Weather past 2 weeks in Bălți, Moldova

Now
54 °F

Cool.


Feels Like: 49 °F
Forecast: 51 / 59 °F
Wind: 14 mph from Northwest

Location: Baltsi-Leadoveni - The North of Moldova

Current Time: Sep 23, 2014 at 1:27:35 AM

Latest Report: Sep 23, 2014 at 1:00 AM


Visibility: N/A

Pressure: 29.65 "Hg

Humidity: 94%

Dew point: 52 °F

Location of BălțiLocation

Historic Weather in Bălți — Graph

°F

Bălți temperature yesterday

Maximum temperature yesterday: 75 °F (at 2:30 PM)
Minimum temperature yesterday: 55 °F (at 10:30 PM)
Average temperature yesterday: 64 °F

Past Weeks' High & Low Weather Summary

 TemperatureHumidityPressure
High82 °F (Sep 13, 1:30 PM)100% (Sep 22, 8:00 AM)30.30 "Hg (Sep 22, 8:00 AM)
Low46 °F (Sep 16, 7:00 AM)22% (Sep 20, 4:00 PM)29.62 "Hg (Sep 22, 4:30 PM)
Average65 °F51%30.06 "Hg
* Reported Midnight between Sep 7 and Sep 8 — Sep 23 12:30 AM, Bălți, Weather by CustomWeather, © 2014

Note: Actual official high and low records may vary slightly from our data, if they occured in-between our weather recording intervals... More about our weather records

Advertising

Bălți weather history for previous 24 hours

 ConditionsComfort  
Time TempWeatherWind HumidityBarometerVisibility
12:30 AM
Sep 23
55 °FCool.15 mph88%29.62 "HgN/A
12:00 AM55 °FCool.14 mph88%29.65 "HgN/A
11:30 PM
Sep 22
55 °FCool.12 mph94%29.65 "HgN/A
11:00 PM55 °FCool.15 mph94%29.65 "HgN/A
10:30 PM55 °FCool.17 mph94%29.62 "HgN/A
10:00 PM57 °FCool.18 mph100%29.62 "HgN/A
9:30 PM59 °FCool.16 mph94%29.62 "Hg4 mi
9:00 PM61 °FCool.15 mph94%29.65 "Hg6 mi
8:30 PM61 °FCool.12 mph88%29.65 "Hg2 mi
8:00 PM63 °FMild.15 mph88%29.62 "HgN/A
7:30 PM64 °FMild.13 mph78%29.62 "HgN/A
7:00 PM68 °FMild.7 mph60%29.62 "HgN/A
6:30 PM72 °FPartly sunny.2 mph61%29.62 "HgN/A
6:00 PM72 °FPartly sunny.3 mph57%29.62 "HgN/A
5:30 PM73 °FPartly sunny.3 mph53%29.62 "HgN/A
5:00 PM73 °FPartly sunny.7 mph53%29.62 "HgN/A
4:30 PM75 °FPartly sunny.5 mph50%29.62 "HgN/A
4:00 PM75 °FPartly sunny.8 mph50%29.65 "HgN/A
3:30 PM75 °FPartly sunny.6 mph50%29.65 "HgN/A
3:00 PM73 °FPartly sunny.6 mph53%29.65 "HgN/A
2:30 PM75 °FPartly sunny.7 mph50%29.68 "HgN/A
2:00 PM72 °FPartly sunny.5 mph57%29.68 "HgN/A
1:30 PM73 °FScattered clouds.8 mph57%29.68 "HgN/A
1:00 PM72 °FScattered clouds.8 mph61%29.71 "HgN/A
12:30 PM72 °FScattered clouds.7 mph61%29.71 "HgN/A
12:00 PM70 °FScattered clouds.7 mph69%29.71 "HgN/A
11:30 AM68 °FScattered clouds.7 mph73%29.71 "HgN/A
11:00 AM66 °FScattered clouds.8 mph78%29.74 "HgN/A
10:30 AM64 °FPartly sunny.7 mph83%29.74 "HgN/A
10:00 AM63 °FPartly sunny.7 mph83%29.74 "HgN/A
9:30 AM61 °FPartly sunny.6 mph88%29.74 "HgN/A
9:00 AM59 °FPartly sunny.6 mph94%29.74 "HgN/A
8:30 AM57 °FBroken clouds.7 mph100%29.74 "HgN/A
8:00 AM57 °FCool.8 mph100%29.77 "HgN/A
7:30 AM57 °FCool.10 mph94%29.77 "HgN/A
7:00 AM57 °FCool.9 mph94%29.77 "HgN/A
6:30 AM59 °FCool.10 mph88%29.77 "HgN/A
6:00 AM59 °FCool.12 mph88%29.77 "HgN/A
5:30 AM59 °FCool.12 mph94%29.77 "HgN/A
5:00 AM59 °FCool.12 mph88%29.77 "HgN/A
4:30 AM59 °FCool.12 mph88%29.77 "HgN/A
4:00 AM59 °FCool.13 mph88%29.77 "HgN/A
3:00 AM59 °FCool.10 mph88%29.80 "HgN/A
2:30 AM59 °FCool.12 mph88%29.80 "HgN/A
2:00 AM59 °FCool.10 mph88%29.80 "HgN/A
1:30 AM59 °FCool.10 mph88%29.80 "HgN/A
1:00 AM59 °FCool.9 mph88%29.80 "HgN/A
Weather by CustomWeather, © 2014

See weather overviewHow to use our weather pages